Location: Huberhof
(49.2050°N, 7.4980°E)
Time: 05:05:42
(UTC+00:00)

Cosmos 2263 Rocket - Pass Details

Date: 29 October 2020
Orbit: 822 x 850 km, 71.0° (Epoch: 25 November)

Event Time Altitude Azimuth Distance (km) Brightness Sun altitude
Rises 18:36:46 0° 332° (NNW) 3,422 5.8 -23.9°
Reaches altitude 10° 18:39:15 10° 336° (NNW) 2,485 5.0 -24.3°
Maximum altitude 18:44:57 66° 58° (ENE) 930 2.1 -25.2°
Enters shadow 18:45:07 65° 69° (ENE) 933 2.1 -25.3°
